Regional Weather Roundup
Issued by NWS

Home | Current Version | Previous Version | Graphics & Text | Print | Product List | Glossary On
Versions: 1 2 3 4 5 6 7 8 9 10 11 12 13 14 15 16 17 18 19 20 21 22 23 24 25 26 27 28 29 30 31 32 33 34 35 36 37 38 39 40 41 42 43 44 45 46 47 48 49 50
295
ASUS43 KDTX 271601
RWRMI
MICHIGAN HOURLY REGIONAL WEATHER ROUNDUP
NATIONAL WEATHER SERVICE DETROIT/PONTIAC MI
1200 PM EDT SUN MAY 27 2018

NOTE: "FAIR" INDICATES FEW OR NO CLOUDS BELOW 12,000 FEET WITH NO
SIGNIFICANT WEATHER AND/OR OBSTRUCTION TO VISIBILITY.

MIZ047>049-052>055-059>063-066>070-074>076-081>083-271700-
SOUTHEAST LOWER MICHIGAN

CITY           SKY/WX    TMP DP  RH WIND       PRES   REMARKS
ADRIAN         FAIR      81  64  56 NW5       29.91F
ANN ARBOR      FAIR      83  68  60 SW5       29.90S
BAD AXE        FAIR      80  66  61 S6        29.88F
CARO           FAIR      82  64  54 SW6       29.88S
DETROIT CITY   FAIR      82  69  64 SE10      29.89F
DETROIT        FAIR      81  69  67 VRB3      29.90S
FLINT          FAIR      83  65  54 VRB6      29.89S
GROSSE ILE     FAIR      73  70  88 S6        29.91R FOG
HILLSDALE      FAIR      82  57  42 CALM      29.92S
HOWELL         FAIR      83  64  53 W6        29.91R

CITY           SKY/WX    TMP DP  RH WIND       PRES   REMARKS
JACKSON        FAIR      84  64  50 VRB3      29.91S
LAMBERTVILLE   FAIR      85  65  51 W5        29.90S
LANSING        FAIR      84  65  52 W7        29.89F
LAPEER         FAIR      84  61  45 CALM      29.89F
MASON          FAIR      84  60  43 W5        29.90F
PONTIAC        FAIR      83  65  54 SW6       29.89S
PORT HOPE        N/A     66  62  87 SE9       29.86S
PORT HURON     FAIR      81  66  61 S6        29.89F
TRI CITIES     FAIR      80  71  74 S8        29.87F
MIDLAND        FAIR      82  66  58 SW9       29.85F
TROY           FAIR      84  64  51 S7        29.91S
SAGINAW HB     FAIR      81  64  57 SW9       29.87S
$$
MIZ043>046-050>051-056>058-064>065-071>073-077>080-271700-
SOUTHWEST LOWER MICHIGAN

CITY           SKY/WX    TMP DP  RH WIND       PRES   REMARKS
BATTLE CREEK   FAIR      86  65  49 VRB5      29.90F
BENTON HARBOR  FAIR      83  69  62 W7        29.89S
BIG RAPIDS     FAIR      85  63  48 SW5       29.86S
COLDWATER      FAIR      88  55  32 NW3       29.91S
FREMONT        FAIR      85  66  53 S5        29.86S
HOLLAND        FAIR      84  65  52 SW6       29.89R
GRAND RAPIDS   FAIR      86  67  52 SW7       29.88S
IONIA          FAIR      85  63  47 SW7       29.88S
KALAMAZOO      FAIR      88  66  48 VRB5      29.89F HX  90
LUDINGTON      FAIR      78  65  63 W7        29.85R
MARSHALL       FAIR      87  62  43 W7        29.90S
MOUNT PLEASANT FAIR      83  67  57 SW12      29.85F
MUSKEGON       FAIR      83  64  52 SW7       29.87S
SOUTH HAVEN    FAIR      83  63  50 SW5       29.89S
$$
MIZ016>042-271700-
NORTHERN LOWER MICHIGAN

CITY           SKY/WX    TMP DP  RH WIND       PRES   REMARKS
ALPENA         FAIR      79  67  66 E8        29.82F
BEAVER ISLAND  FAIR      65  53  65 W9        29.85R
BELLAIRE       FAIR      82  62  50 SW10      29.82R
CADILLAC       FAIR      85  65  50 SW12      29.86R
CHARLEVOIX     FAIR      65  59  81 NW12      29.87R
GAYLORD        FAIR      82  63  52 SW13      29.84S
HARBOR SPRINGS FAIR      60  57  91 S5        29.84R
HOUGHTON LAKE  FAIR      82  64  54 W6        29.86S
MANISTEE       FAIR      81  65  58 W14       29.84R
OSCODA         FAIR      80  62  54 S9        29.85S
PELLSTON       FAIR      80  62  54 NW9       29.82R
ROGERS CITY    FAIR      75  63  64 NE5       29.82S
TRAVERSE CITY  FAIR      87  65  47 SW8       29.81R
$$
MIZ007>008-015-271700-
EASTERN UPPER MICHIGAN

CITY           SKY/WX    TMP DP  RH WIND       PRES   REMARKS
KINROSS        FAIR      76  63  64 VRB6      29.82S
MACKINAC ISLAN FAIR      69  60  73 CALM      29.83S
NEWBERRY       FAIR      76  64  67 NW6       29.83R
S. S. MARIE    FAIR      74  63  68 SW6       29.81F
$$
MIZ004>006-011>014-085-271700-
CENTRAL UPPER MICHIGAN

CITY           SKY/WX    TMP DP  RH WIND       PRES   REMARKS
MANISTIQUE     FAIR      65  62  89 S3        29.84R
ESCANABA       FAIR      77  63  61 NE6       29.85R
MENOMINEE      FAIR      75  63  66 SE6       29.86R
SAWYER-GWINN   MOSUNNY   75  59  57 NE7       29.87R
$$
MIZ001>003-009>011-084-271700-
WESTERN UPPER MICHIGAN

CITY           SKY/WX    TMP DP  RH WIND       PRES   REMARKS
IRON MOUNTAIN  FAIR      84  58  40 VRB7      29.86R
HOUGHTON       FAIR      70  56  61 MISG      29.87R
COPPER HARBOR    N/A     47  42  83 N16       29.87R
IRONWOOD       FAIR      78  59  51 W9        29.89S
$$

ABBREVIATIONS USED IN REMARKS
   TC - TEMPERATURE IN CELSIUS
  WCI - WIND CHILL INDEX
   HX - HEAT INDEX
  VSB - VISIBILITY





USA.gov is the U.S. government's official web portal to all federal, state and local government web resources and services.